Dewpoint
0 -1 -2 -2 -2 -2 -2 -2 -1 -2 -5 -5 -5 -4 -4 -6 -11 -20 -26 -25 -22 -21 -20 -18 -18 -17 -16 -13 -13 -10 -8 -8 -9 -14 -11 -11 -14 -15 -16 -17 -18 -20 -22
1 0 -2 -1 -1 -1 -1 -1 -1 -1 -3 -6 -5 -4 -4 -4 -8 -15 -25 -24 -22 -20 -19 -18 -18 -16 -15 -12 -11 -12 -8 -7 -6 -8 -9 -7 -6 -8 -9 -11 -12 -15 -16
-1 -1 -3 -4 -3 -2 -1 -1 -1 -1 -2 -5 -5 -4 -4 -4 -6 -14 -23 -24 -21 -19 -17 -17 -16 -16 -16 -15 -15 -13 -9 -6 -6 -6 -7 -7 -7 -6 -5 -6 -8 -9 -11
-4 -4 -5 -5 -4 -3 -1 -0 -0 -1 -1 -3 -5 -5 -4 -4 -5 -10 -20 -24 -22 -18 -16 -15 -15 -15 -16 -16 -16 -16 -15 -10 -8 -9 -9 -9 -9 -9 -5 -6 -7 -8 -11
-5 -5 -6 -5 -5 -4 -2 -1 0 -0 -1 -2 -4 -5 -4 -4 -4 -7 -16 -24 -23 -19 -17 -17 -17 -16 -18 -18 -15 -16 -15 -14 -12 -11 -9 -8 -8 -9 -6 -6 -6 -8 -10
-4 -4 -5 -4 -4 -4 -4 -3 -0 0 -0 -2 -2 -4 -5 -4 -4 -5 -12 -22 -24 -22 -20 -19 -18 -17 -17 -17 -14 -15 -13 -11 -8 -6 -7 -8 -8 -6 -6 -7 -7 -6 -6
-5 -5 -5 -5 -4 -3 -3 -3 -2 -0 -0 -1 -2 -3 -4 -5 -5 -6 -10 -19 -24 -23 -22 -21 -20 -19 -17 -15 -16 -13 -11 -7 -6 -6 -6 -6 -6 -7 -7 -7 -7 -7 -7
-5 -5 -5 -4 -4 -3 -3 -3 -3 -2 -1 -1 -1 -2 -3 -5 -1 -6 -12 -20 -24 -22 -22 -21 -21 -20 -18 -15 -13 -12 -10 -10 -9 -7 -7 -6 -6 -6 -6 -6 -7 -7 -8
-8 -9 -8 -5 -4 -4 -4 -4 -3 -2 -1 -1 -1 -1 -2 -4 -0 -2 -13 -21 -22 -22 -22 -21 -20 -19 -18 -14 -11 -10 -9 -9 -8 -7 -6 -7 -7 -7 -7 -7 -7 -7 -9
-6 -6 -6 -7 -8 -5 -4 -3 -3 -3 -2 -1 -1 -2 -3 -5 -1 -1 -12 -20 -22 -22 -22 -21 -20 -18 -16 -13 -10 -8 -8 -8 -7 -7 -7 -11 -11 -10 -9 -8 -9 -8 -8
-6 -5 -5 -6 -5 -6 -7 -5 -4 -3 -2 -1 -1 -2 -4 -6 -1 -2 -11 -20 -21 -21 -21 -20 -19 -17 -8 -7 -7 -7 -7 -7 -7 -7 -10 -13 -11 -11 -11 -11 -10 -9 -8
-17 -11 -7 -5 -5 -5 -7 -6 -4 -3 -2 -2 -2 -3 -4 -5 -1 -2 -13 -20 -19 -20 -21 -20 -18 -15 -9 -10 -7 -7 -7 -7 -7 -8 -12 -12 -12 -11 -11 -10 -11 -10 -10
-22 -19 -12 -7 -4 -4 -5 -6 -4 -3 -2 -2 -2 -3 -4 -3 -1 -4 -15 -20 -19 -20 -21 -20 -18 -16 -8 -7 -8 -9 -7 -7 -7 -11 -12 -11 -11 -10 -10 -10 -10 -10 -10
-18 -19 -16 -9 -6 -3 -3 -4 -4 -4 -3 -3 -2 -2 -4 -2 -2 -9 -7 -19 -19 -20 -21 -20 -19 -17 -12 -8 -8 -9 -8 -10 -11 -10 -10 -10 -10 -9 -9 -9 -9 -9 -10
-16 -14 -15 -16 -8 -4 -3 -3 -3 -4 -3 -3 -2 -2 -3 -2 -3 -4 -11 -20 -20 -19 -19 -18 -17 -15 -13 -13 -10 -9 -9 -10 -10 -9 -9 -9 -9 -9 -9 -9 -9 -9 -10
-12 -8 -8 -7 -7 -6 -4 -3 -3 -3 -3 -4 -5 -6 -6 -2 -3 -3 -15 -19 -19 -19 -15 -16 -15 -13 -12 -12 -10 -9 -9 -10 -10 -9 -9 -9 -9 -9 -9 -9 -9 -9 -10
-9 -9 -9 -6 -6 -5 -5 -3 -3 -3 -4 -5 -6 -7 -6 -2 -3 -4 -16 -18 -18 -17 -9 -14 -16 -14 -13 -12 -11 -11 -11 -11 -10 -9 -9 -9 -9 -9 -10 -9 -9 -9 -10
-7 -6 -5 -4 -4 -4 -5 -5 -3 -4 -4 -4 -4 -4 -3 -2 -3 -4 -17 -16 -13 -10 -9 -14 -16 -16 -13 -13 -12 -12 -11 -11 -10 -10 -10 -9 -9 -9 -9 -9 -9 -9 -9
-5 -4 -4 -3 -3 -4 -4 -5 -4 -4 -3 -4 -4 -3 -3 -3 -4 -7 -15 -11 -14 -15 -16 -17 -16 -18 -17 -15 -13 -12 -11 -11 -10 -10 -9 -9 -9 -9 -9 -9 -9 -9 -9
-5 -5 -4 -4 -4 -3 -4 -4 -4 -4 -4 -3 -3 -2 -3 -4 -4 -10 -12 -12 -14 -16 -17 -18 -18 -17 -18 -15 -13 -12 -11 -11 -10 -10 -9 -9 -9 -9 -9 -9 -9 -9 -9
-4 -4 -4 -4 -4 -4 -4 -4 -4 -5 -5 -3 -3 -3 -3 -3 -4 -5 -8 -17 -17 -18 -18 -18 -18 -18 -19 -15 -13 -12 -11 -11 -10 -10 -9 -9 -9 -9 -9 -9 -9 -9 -9
-4 -4 -4 -4 -4 -4 -4 -4 -4 -5 -5 -5 -3 -3 -3 -4 -4 -4 -11 -18 -18 -18 -18 -18 -17 -19 -19 -14 -13 -12 -11 -10 -10 -9 -9 -9 -9 -9 -9 -9 -9 -8 -9
-5 -4 -5 -5 -5 -5 -5 -5 -5 -5 -5 -5 -4 -3 -3 -4 -4 -5 -13 -12 -17 -18 -18 -18 -17 -19 -18 -13 -13 -11 -11 -10 -10 -9 -9 -9 -9 -9 -9 -8 -8 -9 -8
-5 -5 -5 -5 -4 -5 -5 -5 -5 -5 -5 -5 -5 -4 -4 -4 -4 -4 -13 -14 -17 -17 -17 -17 -16 -19 -17 -13 -12 -11 -11 -10 -10 -9 -9 -9 -9 -9 -8 -8 -8 -8 -9
-5 -5 -5 -5 -5 -4 -5 -5 -5 -6 -5 -5 -5 -5 -5 -4 -4 -8 -15 -15 -17 -17 -17 -16 -14 -19 -16 -13 -12 -11 -10 -10 -10 -9 -9 -9 -9 -9 -8 -8 -8 -9 -9
-5 -5 -5 -5 -5 -5 -5 -5 -5 -6 -6 -6 -6 -6 -5 -5 -5 -8 -13 -16 -17 -14 -15 -11 -15 -18 -14 -12 -12 -11 -10 -10 -9 -9 -9 -9 -9 -8 -8 -9 -9 -9 -9
Wind_Speed
27 27 26 27 28 27 28 27 26 25 24 23 21 20 18 18 17 17 16 15 13 13 12 11 11 11 10 11 10 10 11 11 14 16 16 18 18 18 18 16 14 14 15
23 23 25 27 29 30 31 30 29 29 27 25 23 22 20 19 18 17 17 15 15 13 13 12 12 11 11 11 11 10 13 13 15 18 16 17 18 18 17 17 17 15 14
17 19 23 25 27 30 31 31 31 30 30 28 27 24 22 21 19 18 17 16 15 15 15 14 13 13 13 14 13 12 12 13 14 16 19 16 16 14 17 18 18 16 14
18 20 22 23 25 27 29 31 32 32 33 31 29 26 24 22 20 19 18 17 16 16 15 16 15 15 14 16 16 14 14 15 16 16 16 16 15 10 11 18 18 18 19
19 21 23 24 26 26 28 30 31 32 34 34 31 29 27 25 22 21 19 18 18 18 17 16 16 17 17 17 16 15 15 15 16 17 17 17 16 17 13 18 22 24 18
25 26 26 27 29 29 28 28 31 33 35 36 35 33 30 27 23 22 20 20 19 20 19 17 17 17 18 17 16 17 15 15 16 17 18 18 16 14 19 21 20 21 22
25 26 29 30 31 31 29 29 31 33 35 37 37 35 33 29 25 23 22 22 20 20 19 19 18 16 18 18 18 16 14 11 12 15 18 17 18 18 19 21 19 20 22
27 28 28 28 29 29 29 29 31 33 35 37 37 37 35 30 26 25 23 23 21 20 19 19 19 18 17 17 19 19 17 16 16 16 16 19 19 18 17 18 19 22 25
27 27 28 28 30 29 29 30 30 33 35 37 37 36 37 32 29 23 24 24 22 20 18 18 18 18 17 17 18 20 19 16 14 14 15 17 20 19 16 19 19 20 25
31 31 31 30 29 31 31 31 31 33 35 34 36 36 36 33 29 22 24 24 23 20 19 18 17 17 18 16 15 17 20 17 17 20 18 19 18 14 15 16 19 21 21
33 33 34 34 33 31 30 30 30 31 32 33 34 34 35 33 31 20 25 24 22 20 19 18 17 16 14 16 15 18 19 18 20 21 20 18 16 16 17 15 16 18 21
36 37 36 35 35 33 31 29 28 28 30 31 31 34 34 32 30 19 24 22 20 21 19 18 18 16 17 19 17 19 18 18 20 20 21 17 16 16 16 18 19 20 22
42 40 40 37 36 34 31 28 28 28 29 30 31 33 34 31 25 16 21 20 20 21 18 18 19 17 17 18 20 20 16 17 20 20 18 17 17 19 19 20 20 19 20
46 45 42 39 38 36 33 29 27 29 30 29 31 33 30 28 20 18 17 20 20 19 17 19 17 18 17 17 17 18 14 15 16 16 17 18 19 18 18 17 19 20 22
47 45 44 43 38 37 35 31 29 28 28 28 29 27 28 25 22 20 19 20 19 17 16 19 18 19 19 18 16 14 13 15 16 17 18 19 19 20 21 20 21 22 24
44 41 44 44 42 38 35 35 31 28 26 26 26 27 26 26 24 22 22 20 19 19 17 21 21 21 20 18 17 15 16 18 18 20 18 19 21 21 22 22 21 23 26
41 44 43 42 44 41 36 35 36 31 28 26 29 30 30 28 21 22 21 21 21 22 20 23 22 21 20 20 17 16 17 17 18 17 18 18 19 21 21 22 22 23 25
40 42 41 41 42 40 35 34 34 34 34 30 30 33 32 27 24 24 23 21 22 23 24 23 22 19 20 19 17 17 17 19 17 16 18 18 19 19 21 22 23 24 26
40 40 40 39 37 37 36 32 32 34 35 34 31 31 29 25 25 24 23 25 26 26 23 23 22 19 18 18 18 18 18 17 16 17 18 18 17 18 20 21 23 24 25
42 43 43 41 39 36 35 33 33 34 36 35 34 31 26 23 27 27 26 28 28 26 23 23 21 20 18 18 18 18 18 16 16 17 17 17 17 19 21 22 24 27 29
44 40 37 34 37 37 34 34 33 34 37 35 33 30 26 25 29 28 25 28 27 25 23 21 20 19 18 18 18 18 17 16 16 17 17 17 18 21 21 23 26 29 31
38 37 35 34 33 33 34 33 32 34 35 34 31 28 25 26 25 23 24 25 24 23 21 20 19 18 17 17 17 17 16 15 15 16 17 18 19 21 22 25 28 30 32
35 34 34 33 32 32 31 31 33 33 34 34 31 28 25 27 29 25 23 22 22 21 20 19 17 17 16 16 16 16 16 15 15 16 18 19 19 20 23 27 29 31 32
34 34 34 35 34 32 30 29 30 31 32 33 32 29 26 25 27 25 24 21 21 20 19 18 16 16 15 16 16 15 15 15 16 17 18 18 20 21 24 27 29 30 31
38 37 36 35 35 34 31 30 27 28 29 31 32 28 25 25 23 23 23 22 21 20 18 16 17 15 15 15 14 14 15 16 17 17 15 17 21 23 25 26 29 28 27
37 35 35 35 35 34 31 30 28 26 26 29 30 27 25 25 23 20 22 22 20 18 17 16 16 14 14 14 13 14 15 15 15 13 12 17 20 21 23 24 26 24 24
Wind_Direction
272 272 278 288 290 285 281 276 272 273 276 280 283 288 293 298 302 304 302 299 299 298 297 300 302 304 304 307 308 311 312 309 306 314 316 323 332 337 343 348 350 349 343
283 276 276 285 287 285 283 281 277 273 272 274 276 280 286 292 298 299 296 292 292 292 293 295 297 301 300 299 305 312 311 312 312 317 327 333 339 343 348 346 349 348 348
286 285 289 293 289 288 286 285 279 273 271 270 272 276 281 286 292 294 291 289 287 289 292 294 295 297 298 299 304 300 303 305 307 306 312 317 317 335 344 338 341 342 346
306 301 299 302 298 292 287 283 279 273 269 267 268 271 275 280 285 289 288 285 281 281 284 289 294 293 298 300 300 300 295 295 300 308 313 321 327 330 327 326 326 327 330
300 296 304 304 302 297 289 285 281 276 272 270 266 266 269 273 278 283 285 282 279 279 280 282 286 291 300 299 297 301 297 298 301 301 303 305 317 328 326 314 312 315 330
303 302 304 304 303 300 296 289 280 277 274 271 266 263 265 269 273 278 282 279 274 276 279 280 284 290 292 298 298 298 299 304 306 310 311 310 311 310 304 309 321 327 333
317 311 308 306 303 300 298 293 286 280 277 275 269 263 262 264 267 271 274 275 270 271 275 279 282 285 287 291 293 293 289 277 274 286 295 303 298 300 302 305 310 309 304
320 318 316 315 310 305 299 293 291 285 280 277 273 264 261 258 262 268 271 271 270 269 274 278 282 285 285 287 290 293 289 286 283 283 287 294 296 303 303 304 303 300 300
332 325 320 315 311 307 300 296 293 287 282 278 275 266 259 255 258 259 265 266 267 269 271 274 280 283 288 284 278 287 293 296 300 292 283 278 282 294 294 297 298 302 307
336 333 330 323 312 303 298 295 293 288 284 279 273 270 262 255 254 250 262 262 263 268 271 273 278 284 285 287 290 293 294 299 298 296 297 303 300 295 292 283 289 292 299
331 327 328 327 322 312 304 297 293 287 282 275 270 267 260 253 258 250 260 260 262 265 268 271 276 279 267 275 283 284 290 299 294 292 303 299 297 293 291 290 288 286 285
326 322 321 321 321 318 311 303 294 286 279 273 269 263 257 249 254 246 259 259 258 262 267 271 276 276 267 276 279 279 283 282 280 290 296 293 297 294 293 290 287 282 284
318 318 317 315 314 312 308 303 293 285 279 273 267 261 256 257 252 253 256 256 256 261 267 270 272 273 271 277 277 280 281 279 285 288 287 291 293 294 295 293 290 290 289
313 311 310 311 308 305 304 301 292 282 277 272 266 262 255 253 253 249 255 255 253 256 264 270 275 278 277 281 284 287 276 286 288 289 291 291 290 292 296 299 300 301 298
316 314 312 310 307 303 298 295 290 284 276 272 267 262 256 256 252 251 256 251 250 256 263 270 268 273 281 287 288 281 286 288 285 286 287 286 291 296 300 301 300 300 296
311 310 309 307 308 303 299 295 288 285 277 269 261 255 255 261 255 252 246 252 248 248 250 263 270 275 280 285 283 277 280 279 277 277 278 283 292 297 300 304 306 303 302
303 304 307 303 301 301 298 292 286 279 273 267 258 257 254 264 255 245 247 249 247 249 248 262 265 274 278 281 279 279 282 282 279 273 278 290 295 297 300 301 307 308 309
306 305 304 301 298 299 295 291 285 276 271 267 262 256 261 258 250 246 249 247 244 240 250 259 266 273 274 279 280 279 280 282 278 282 289 294 293 298 303 305 308 308 307
313 312 310 306 300 297 294 286 280 274 270 269 268 264 262 255 245 243 245 241 246 250 254 260 267 273 274 277 276 274 277 280 284 288 292 294 297 300 303 306 308 306 300
313 310 307 303 302 296 291 285 278 274 270 266 266 272 265 249 234 238 241 243 248 255 261 264 269 272 275 273 272 271 276 278 283 288 293 296 299 300 302 307 308 309 310
313 313 311 302 298 297 289 285 281 275 271 270 269 273 270 251 242 246 249 253 254 258 262 264 267 271 273 270 269 269 273 278 285 291 296 298 299 302 307 309 312 313 313
315 313 312 308 303 298 292 285 282 276 274 272 271 267 267 253 246 241 250 256 255 256 258 260 266 273 272 269 267 270 273 280 287 294 297 298 301 306 310 312 314 315 316
316 314 315 314 310 302 296 285 276 273 272 273 272 267 258 252 246 245 250 258 256 254 256 258 268 273 270 268 267 271 276 283 287 295 299 299 303 309 313 316 318 320 319
317 315 315 317 316 311 301 293 284 275 272 272 271 268 261 256 251 252 251 258 254 251 254 258 272 273 267 264 264 268 276 284 289 295 299 299 306 311 316 319 322 311 310
315 312 312 312 312 312 306 298 289 278 271 269 270 268 264 255 245 245 246 251 246 246 254 260 272 270 265 261 260 266 275 281 289 295 295 307 312 315 317 313 310 315 316
309 307 306 303 305 306 305 300 293 283 272 267 267 265 262 256 244 237 243 244 239 243 251 259 269 266 260 257 259 265 274 282 290 296 296 304 305 306 309 311 316 319 317
Height
1495 1495 1495 1493 1491 1490 1488 1487 1486 1485 1485 1485 1484 1483 1481 1479 1477 1475 1472 1470 1469 1468 1466 1465 1463 1461 1459 1457 1454 1452 1451 1448 1445 1443 1442 1438 1436 1433 1430 1428 1425 1422 1419
1491 1491 1490 1489 1487 1485 1484 1483 1483 1482 1481 1480 1479 1478 1477 1475 1473 1471 1469 1467 1466 1464 1463 1461 1459 1458 1457 1455 1453 1449 1449 1446 1443 1439 1438 1435 1433 1431 1429 1426 1424 1421 1417
1488 1487 1486 1484 1482 1480 1478 1477 1476 1475 1474 1473 1473 1472 1471 1470 1468 1467 1465 1463 1461 1461 1460 1459 1457 1454 1453 1452 1450 1447 1445 1444 1441 1438 1435 1433 1431 1429 1427 1425 1423 1420 1418
1484 1483 1481 1480 1477 1474 1472 1469 1468 1467 1466 1466 1466 1466 1465 1465 1464 1462 1461 1459 1458 1456 1455 1455 1453 1452 1449 1449 1447 1444 1441 1440 1438 1436 1433 1431 1428 1427 1425 1423 1420 1418 1416
1482 1480 1477 1475 1472 1469 1467 1464 1463 1461 1460 1460 1460 1460 1459 1458 1457 1456 1455 1454 1453 1452 1450 1448 1447 1446 1445 1443 1443 1441 1439 1436 1435 1433 1431 1429 1426 1424 1422 1420 1418 1415 1414
1477 1474 1472 1469 1467 1464 1461 1459 1457 1455 1454 1453 1452 1452 1452 1452 1451 1450 1449 1448 1447 1446 1446 1445 1444 1443 1441 1439 1438 1436 1435 1432 1431 1430 1428 1426 1424 1422 1419 1417 1415 1412 1410
1471 1469 1466 1463 1460 1458 1455 1453 1450 1448 1447 1445 1445 1446 1445 1445 1445 1444 1443 1441 1440 1439 1439 1439 1438 1436 1436 1435 1433 1432 1431 1429 1428 1428 1425 1424 1421 1420 1417 1413 1412 1411 1409
1466 1463 1459 1456 1452 1450 1448 1446 1443 1441 1439 1437 1436 1437 1437 1438 1438 1439 1438 1436 1434 1434 1433 1433 1433 1432 1431 1430 1428 1426 1425 1424 1423 1422 1420 1420 1418 1416 1414 1411 1409 1407 1405
1461 1457 1453 1449 1445 1442 1440 1438 1436 1433 1431 1429 1428 1428 1428 1429 1430 1430 1430 1430 1429 1427 1427 1427 1427 1427 1425 1425 1423 1421 1419 1418 1418 1418 1416 1415 1414 1413 1411 1409 1406 1403 1399
1457 1453 1449 1445 1439 1435 1432 1429 1428 1426 1423 1422 1420 1420 1421 1422 1421 1420 1423 1424 1422 1421 1421 1421 1421 1421 1420 1419 1417 1416 1414 1413 1412 1412 1410 1409 1408 1406 1406 1404 1402 1400 1399
1453 1448 1443 1438 1433 1429 1424 1421 1418 1416 1414 1413 1413 1413 1413 1414 1414 1413 1415 1416 1416 1415 1415 1415 1415 1415 1415 1414 1413 1411 1410 1409 1408 1406 1405 1404 1403 1402 1401 1400 1399 1397 1396
1446 1440 1436 1431 1425 1420 1415 1412 1409 1407 1405 1404 1405 1405 1405 1406 1406 1406 1409 1410 1410 1409 1409 1410 1410 1410 1409 1408 1408 1406 1406 1404 1402 1401 1400 1399 1399 1398 1396 1395 1394 1393 1391
1438 1433 1427 1423 1418 1414 1409 1404 1401 1400 1398 1397 1397 1397 1398 1399 1399 1400 1402 1403 1404 1403 1403 1403 1404 1404 1404 1403 1401 1400 1400 1398 1397 1396 1395 1395 1394 1392 1390 1389 1388 1386 1384
1429 1424 1420 1415 1411 1407 1402 1397 1393 1391 1390 1390 1390 1389 1391 1393 1392 1394 1395 1396 1397 1397 1397 1397 1397 1397 1397 1396 1395 1394 1394 1393 1393 1392 1391 1390 1389 1386 1384 1383 1381 1379 1377
1421 1414 1409 1406 1403 1398 1395 1391 1386 1383 1382 1382 1382 1384 1385 1385 1386 1387 1388 1390 1391 1391 1391 1391 1391 1391 1390 1390 1389 1388 1388 1388 1388 1387 1386 1385 1383 1380 1378 1377 1375 1373 1371
1411 1407 1401 1397 1392 1389 1385 1382 1379 1376 1374 1374 1375 1377 1379 1379 1379 1380 1381 1383 1384 1385 1384 1383 1383 1384 1383 1383 1382 1382 1383 1383 1383 1382 1381 1379 1377 1375 1373 1371 1369 1367 1364
1404 1396 1392 1388 1383 1380 1377 1374 1371 1370 1368 1367 1367 1370 1371 1372 1372 1373 1374 1376 1377 1379 1377 1377 1377 1377 1377 1377 1377 1377 1377 1377 1376 1376 1375 1373 1372 1369 1368 1365 1363 1361 1358
1394 1389 1383 1377 1374 1370 1367 1365 1364 1363 1362 1361 1361 1362 1362 1363 1364 1366 1367 1369 1369 1370 1370 1370 1370 1371 1371 1371 1371 1371 1371 1371 1370 1370 1369 1367 1366 1364 1362 1359 1357 1355 1352
1385 1379 1374 1369 1364 1361 1359 1355 1355 1354 1354 1354 1354 1353 1355 1356 1358 1359 1360 1360 1361 1362 1364 1364 1365 1364 1365 1366 1365 1365 1365 1364 1364 1364 1362 1361 1360 1359 1356 1354 1352 1349 1347
1376 1370 1366 1361 1356 1352 1350 1348 1346 1346 1345 1345 1345 1345 1347 1350 1350 1351 1353 1353 1354 1355 1356 1358 1359 1359 1359 1359 1359 1359 1359 1359 1359 1358 1357 1356 1354 1353 1351 1349 1346 1343 1340
1367 1360 1355 1351 1348 1345 1342 1339 1339 1337 1336 1336 1336 1338 1339 1340 1342 1344 1347 1347 1348 1349 1350 1352 1353 1353 1353 1353 1353 1353 1353 1353 1353 1353 1351 1350 1349 1347 1345 1343 1340 1336 1332
1358 1352 1347 1343 1339 1336 1333 1331 1329 1328 1328 1327 1328 1329 1331 1332 1334 1336 1339 1340 1341 1343 1344 1346 1346 1346 1347 1347 1347 1347 1348 1348 1348 1347 1346 1344 1342 1340 1338 1336 1333 1329 1324
1351 1345 1340 1335 1331 1327 1325 1323 1321 1320 1320 1319 1320 1321 1323 1325 1327 1329 1332 1334 1335 1337 1338 1339 1340 1340 1341 1341 1341 1342 1342 1343 1342 1341 1340 1338 1336 1334 1332 1329 1326 1321 1317
1344 1339 1334 1329 1324 1320 1316 1314 1312 1312 1312 1312 1312 1313 1315 1317 1320 1322 1326 1328 1329 1330 1332 1333 1334 1335 1335 1336 1336 1337 1337 1337 1336 1335 1334 1332 1330 1328 1326 1322 1318 1316 1312
1336 1331 1326 1321 1317 1313 1309 1306 1305 1304 1304 1305 1304 1306 1308 1310 1312 1315 1319 1321 1323 1324 1326 1327 1329 1329 1330 1330 1331 1332 1332 1331 1330 1330 1328 1327 1324 1322 1320 1317 1314 1309 1305
1328 1322 1318 1314 1309 1305 1301 1299 1297 1296 1296 1297 1298 1299 1301 1303 1305 1308 1312 1314 1316 1318 1321 1322 1323 1324 1325 1325 1326 1327 1327 1326 1325 1325 1324 1323 1320 1318 1315 1311 1307 1303 1299